Stations météo

réclame
Mon MeteoGroup
Aultbea, Grande-Bretagne (3034): Température de l'air & dewpoint: 08.08.2018 16:00:00 - 14.08.2018 16:00:00 (BST)Aultbea, Grande-Bretagne (3034): Température de l'air -20cm & Température de l'air -100cm: 08.08.2018 16:00:00 - 14.08.2018 16:00:00 (BST)Aultbea, Grande-Bretagne (3034): Vitesse du vent & gusts: 08.08.2018 16:00:00 - 14.08.2018 16:00:00 (BST)Aultbea, Grande-Bretagne (3034): Direction du vent: 08.08.2018 16:00:00 - 14.08.2018 16:00:00 (BST)Aultbea, Grande-Bretagne (3034): reduced air pressure: 08.08.2018 16:00:00 - 14.08.2018 16:00:00 (BST)Aultbea, Grande-Bretagne (3034): visibility: 08.08.2018 16:00:00 - 14.08.2018 16:00:00 (BST)Aultbea, Grande-Bretagne (3034): Quantités de précipitations: 08.08.2018 16:00:00 - 14.08.2018 16:00:00 (BST)
Date & Time tt [°C] td [°C] tt -20cm [°C] tt -100cm [°C] ff [km/h] ff [knt] fx [km/h] fx [knt] dd ppp [hPa] vv [km] rr [mm]
14.08.2018 16:00:00 15,2 14,5 - - 26 14 - - SSW 1007,3 2,8 0,0
14.08.2018 15:00:00 16,2 14,6 - - 28 15 - - SSW 1007,0 40 0,0
14.08.2018 14:00:00 15,6 14,8 - - 24 13 - - S 1006,8 50 0,6
14.08.2018 13:00:00 14,9 14,3 - - 24 13 - - S 1007,0 5 0,6
14.08.2018 12:00:00 14,7 14,0 - - 24 13 - - S 1007,1 6 0,2
14.08.2018 11:00:00 14,2 13,7 - - 13 7 - - S 1007,5 10 0,8
14.08.2018 10:00:00 13,8 13,0 16,2 15,2 22 12 - - S 1007,6 9 0,4
14.08.2018 09:00:00 13,9 12,7 - - 26 14 - - SSW 1008,0 17 0,0
14.08.2018 08:00:00 14,1 13,0 - - 21 11 - - SSW 1007,5 45 0,0
14.08.2018 07:00:00 13,4 12,9 - - 16 9 - - S 1007,5 7 0,2
14.08.2018 06:00:00 13,6 12,4 - - 16 9 - - S 1007,6 50 0,0
14.08.2018 05:00:00 13,6 12,5 - - 16 9 - - S 1008,0 50 0,0
14.08.2018 04:00:00 13,8 12,5 - - 21 11 - - SSW 1008,6 50 0,0
14.08.2018 03:00:00 13,9 12,6 - - 22 12 - - SSW 1008,5 45 0,0
14.08.2018 02:00:00 13,8 12,2 - - 11 6 - - S 1008,5 50 0,0
14.08.2018 01:00:00 13,7 12,0 - - 22 12 - - SSW 1008,9 45 0,0
14.08.2018 00:00:00 14,1 12,1 - - 21 11 - - S 1009,0 50 0,0
13.08.2018 23:00:00 14,2 12,4 - - 13 7 - - SSW 1009,1 50 0,0
13.08.2018 22:00:00 14,3 12,6 - - 15 8 - - S 1009,1 45 0,0
13.08.2018 21:00:00 14,2 13,2 - - 15 8 - - S 1008,9 40 0,0
13.08.2018 20:00:00 14,5 13,5 - - 13 7 - - S 1008,6 23 0,0
13.08.2018 19:00:00 15,2 12,9 - - 11 6 - - SW 1008,4 50 0,0
13.08.2018 18:00:00 15,3 13,4 - - 11 6 - - SSW 1008,3 50 0,0
13.08.2018 17:00:00 15,7 13,6 - - 11 6 - - SW 1008,5 50 0,0
13.08.2018 16:00:00 15,9 13,4 - - 15 8 - - SW 1008,3 45 0,0
13.08.2018 15:00:00 16,3 13,9 - - 9 5 - - SSW 1008,4 45 0,0
13.08.2018 14:00:00 14,9 13,4 - - 5 3 - - WNW 1008,6 45 0,0
13.08.2018 13:00:00 16,4 13,3 - - 8 4 - - S 1008,2 40 0,0
13.08.2018 12:00:00 16,1 14,2 - - 8 4 - - SE 1008,1 50 0,0
13.08.2018 11:00:00 14,7 13,4 - - 4 2 - - S 1008,1 20 0,0
13.08.2018 10:00:00 14,4 14,0 16,2 15,2 5 3 - - SE 1008,0 40 0,2
13.08.2018 09:00:00 13,6 13,1 - - 5 3 - - SE 1007,9 4,5 0,2
13.08.2018 08:00:00 13,6 12,9 - - 2 1 - - NNE 1007,7 9 0,0
13.08.2018 07:00:00 13,0 12,5 - - 2 1 - - ESE 1007,2 30 0,2
13.08.2018 06:00:00 12,8 12,4 - - 4 2 - - E 1007,2 12 0,0
13.08.2018 05:00:00 12,9 12,4 - - 4 2 - - ENE 1007,4 14 0,2
13.08.2018 04:00:00 13,0 12,3 - - 4 2 - - E 1007,5 6 0,2
13.08.2018 03:00:00 13,2 12,2 - - 8 4 - - SE 1007,5 35 0,0
13.08.2018 02:00:00 13,6 11,9 - - 8 4 - - ESE 1007,7 35 0,0
13.08.2018 01:00:00 13,8 11,7 - - 9 5 - - ESE 1007,8 35 0,0
13.08.2018 00:00:00 13,4 11,7 - - 9 5 - - E 1007,9 50 0,2
12.08.2018 23:00:00 12,9 11,8 - - 8 4 - - E 1008,1 40 0,2
12.08.2018 22:00:00 13,0 11,8 - - 5 3 - - ESE 1008,2 35 0,4
12.08.2018 21:00:00 13,5 12,0 - - 9 5 - - E 1008,1 19 1,4
12.08.2018 20:00:00 14,2 12,8 - - 5 3 - - ESE 1008,1 19 0,4
12.08.2018 19:00:00 14,6 13,2 - - 4 2 - - WNW 1008,1 21 0,4
12.08.2018 18:00:00 15,2 12,9 - - 2 1 - - S 1008,1 21 1,2
12.08.2018 17:00:00 15,2 13,6 - - 4 2 - - ESE 1008,2 21 1,0
12.08.2018 16:00:00 15,3 12,2 - - 13 7 - - SE 1008,3 30 0,0
12.08.2018 15:00:00 16,4 11,9 - - 13 7 - - SE 1008,2 35 0,0
12.08.2018 14:00:00 17,7 12,3 - - 13 7 - - SE 1008,1 40 0,0
12.08.2018 13:00:00 17,6 11,5 - - 8 4 - - SE 1008,1 40 0,0
12.08.2018 12:00:00 17,3 10,7 - - 8 4 - - S 1008,2 45 0,0
12.08.2018 11:00:00 16,7 10,8 - - 8 4 - - ESE 1008,2 50 0,0
12.08.2018 10:00:00 15,6 9,8 16,2 15,2 2 1 - - SW 1008,2 40 0,0
12.08.2018 09:00:00 14,5 10,2 - - 4 2 - - SW 1008,1 40 0,0
12.08.2018 08:00:00 14,4 9,7 - - 4 2 - - ESE 1008,1 35 0,0
12.08.2018 07:00:00 12,9 9,1 - - 4 2 - - NE 1008,3 50 0,0
12.08.2018 06:00:00 13,4 9,3 - - 16 9 - - ENE 1008,3 50 0,0
12.08.2018 05:00:00 13,3 9,3 - - 21 11 - - ENE 1008,7 50 0,0
12.08.2018 04:00:00 13,1 9,6 - - 21 11 - - NE 1009,2 50 0,0
12.08.2018 03:00:00 13,5 9,7 - - 18 10 - - NE 1010,0 45 0,0
12.08.2018 02:00:00 13,5 8,8 - - 16 9 - - ENE 1010,9 50 0,0
12.08.2018 01:00:00 13,4 8,3 - - 15 8 - - NE 1011,5 50 0,0
12.08.2018 00:00:00 13,1 8,2 - - 13 7 - - NE 1012,1 50 0,0
11.08.2018 23:00:00 13,1 7,8 - - 8 4 - - ESE 1012,7 50 0,0
11.08.2018 22:00:00 13,5 9,1 - - 4 2 - - SSE 1013,2 45 0,0
11.08.2018 21:00:00 14,1 8,4 - - 16 9 - - NNE 1013,6 50 0,0
11.08.2018 20:00:00 14,3 8,3 - - 16 9 - - NE 1014,0 50 0,0
11.08.2018 19:00:00 14,4 8,2 - - 18 10 - - NE 1014,6 50 0,0
11.08.2018 18:00:00 15,0 8,3 - - 13 7 - - NE 1015,1 50 0,0
11.08.2018 17:00:00 15,9 8,5 - - 11 6 - - NE 1015,4 45 0,0
11.08.2018 16:00:00 15,8 8,8 - - 4 2 - - NE 1016,2 45 0,0
11.08.2018 15:00:00 15,7 8,0 - - 9 5 - - WNW 1016,8 29 0,0
11.08.2018 14:00:00 15,9 7,2 - - 5 3 - - SSW 1017,1 40 0,0
11.08.2018 13:00:00 16,6 7,9 - - 5 3 - - SSE 1017,3 30 0,0
11.08.2018 12:00:00 15,7 8,4 - - 5 3 - - SE 1017,5 50 0,0
11.08.2018 11:00:00 15,1 9,0 - - 8 4 - - SE 1017,7 50 0,0
11.08.2018 10:00:00 14,1 9,5 16,2 15,2 8 4 - - S 1018,0 35 0,0
11.08.2018 09:00:00 13,0 9,6 - - 9 5 - - S 1018,2 45 0,0
11.08.2018 08:00:00 12,2 9,6 - - 11 6 - - S 1018,3 45 0,0
11.08.2018 07:00:00 11,8 9,9 - - 9 5 - - S 1018,1 40 0,0
11.08.2018 06:00:00 11,0 9,4 - - 9 5 - - S 1017,8 40 0,0
11.08.2018 05:00:00 11,5 9,8 - - 8 4 - - SW 1017,9 45 0,0
11.08.2018 04:00:00 11,9 10,3 - - 9 5 - - WSW 1017,7 50 0,0
11.08.2018 03:00:00 12,0 10,2 - - 9 5 - - WSW 1017,8 45 0,0
11.08.2018 02:00:00 12,2 9,9 - - 8 4 - - W 1018,3 45 0,0
11.08.2018 01:00:00 12,5 10,5 - - 9 5 - - W 1018,1 45 0,0
11.08.2018 00:00:00 12,7 10,7 - - 9 5 - - WSW 1017,9 45 0,0
10.08.2018 23:00:00 12,7 10,5 - - 8 4 - - WSW 1017,8 50 0,0
10.08.2018 22:00:00 12,5 9,9 - - 4 2 - - WSW 1017,4 50 0,0
10.08.2018 21:00:00 13,1 10,2 - - 4 2 - - SSE 1017,0 45 0,0
10.08.2018 20:00:00 13,6 9,8 - - 4 2 - - WNW 1016,5 45 0,0
10.08.2018 19:00:00 13,6 10,3 - - 8 4 - - NW 1016,2 50 0,0
10.08.2018 18:00:00 14,3 9,9 - - 13 7 - - WNW 1015,9 50 0,0
10.08.2018 17:00:00 14,6 9,8 - - 11 6 - - WNW 1015,6 45 0,0
10.08.2018 16:00:00 14,6 9,4 - - 11 6 - - WNW 1015,1 40 0,0
10.08.2018 15:00:00 14,7 10,4 - - 11 6 - - WNW 1014,6 40 0,0
10.08.2018 14:00:00 12,7 9,4 - - 11 6 - - WNW 1014,3 50 0,0
10.08.2018 13:00:00 14,0 10,0 - - 11 6 - - WNW 1013,7 40 0,0
10.08.2018 12:00:00 13,9 10,3 - - 9 5 - - WNW 1013,4 35 0,0
10.08.2018 11:00:00 12,8 9,6 - - 9 5 - - WNW 1013,0 45 0,0
10.08.2018 10:00:00 12,1 10,2 15,7 15,2 8 4 - - WNW 1012,7 30 0,0
10.08.2018 09:00:00 11,7 10,4 - - 4 2 - - ESE 1012,3 50 0,0
10.08.2018 08:00:00 11,1 9,9 - - 0 0 - - N 1011,8 45 0,0
10.08.2018 07:00:00 10,8 10,6 - - 2 1 - - S 1011,4 35 0,0
10.08.2018 06:00:00 10,4 9,9 - - 5 3 - - WNW 1011,0 9 0,2
10.08.2018 05:00:00 10,5 10,0 - - 4 2 - - E 1011,0 15 0,8
10.08.2018 04:00:00 10,4 10,1 - - 5 3 - - SE 1011,0 8 2,8
10.08.2018 03:00:00 9,5 9,2 - - 4 2 - - E 1011,1 50 0,0
10.08.2018 02:00:00 9,4 8,9 - - 5 3 - - E 1011,2 50 0,0
10.08.2018 01:00:00 8,7 7,9 - - 5 3 - - E 1011,3 40 0,0
10.08.2018 00:00:00 10,1 9,3 - - 4 2 - - NE 1011,1 45 0,0
09.08.2018 23:00:00 11,1 9,0 - - 8 4 - - SSE 1011,0 50 0,0
09.08.2018 22:00:00 12,5 10,2 - - 8 4 - - SSW 1011,0 40 0,0
09.08.2018 21:00:00 12,3 10,2 - - 5 3 - - SSE 1010,9 45 0,0
09.08.2018 20:00:00 13,3 9,7 - - 13 7 - - SSW 1010,5 45 0,2
09.08.2018 19:00:00 12,9 9,6 - - 16 9 - - SW 1010,5 30 0,8
09.08.2018 18:00:00 11,8 9,3 - - 21 11 - - SW 1010,6 10 0,0
09.08.2018 17:00:00 14,4 10,6 - - 24 13 - - SW 1010,0 15 0,0
09.08.2018 16:00:00 14,1 9,3 - - 26 14 - - SSW 1009,7 30 0,0
09.08.2018 15:00:00 13,4 9,8 - - 24 13 - - SW 1009,5 35 0,4
09.08.2018 14:00:00 12,0 9,7 - - 28 15 - - SW 1009,3 5 1,0
09.08.2018 13:00:00 14,9 10,2 - - 28 15 - - S 1008,6 35 0,0
09.08.2018 12:00:00 13,4 9,8 - - 31 17 48 26 SSW 1008,2 35 0,0
09.08.2018 11:00:00 11,7 9,7 - - 28 15 52 28 SSW 1008,0 35 1,2
09.08.2018 10:00:00 12,4 10,4 16,0 15,2 34 18 52 28 S 1007,5 12 0,2
09.08.2018 09:00:00 11,7 10,1 - - 35 19 50 27 S 1007,1 10 0,0
09.08.2018 08:00:00 11,3 9,1 - - 31 17 54 29 S 1006,9 40 0,8
09.08.2018 07:00:00 11,8 8,9 - - 26 14 - - S 1006,6 35 0,0
09.08.2018 06:00:00 11,7 8,3 - - 21 11 - - S 1006,5 40 0,0
09.08.2018 05:00:00 11,3 8,3 - - 22 12 - - S 1006,5 35 0,0
09.08.2018 04:00:00 11,4 8,3 - - 24 13 - - S 1006,5 35 0,0
09.08.2018 03:00:00 11,0 8,2 - - 18 10 - - S 1006,6 40 0,0
09.08.2018 02:00:00 11,2 8,6 - - 21 11 - - S 1006,8 45 0,0
09.08.2018 01:00:00 11,0 8,6 - - 16 9 - - S 1006,8 40 0,0
09.08.2018 00:00:00 11,0 8,9 - - 21 11 - - S 1007,0 35 0,0
08.08.2018 23:00:00 11,1 8,6 - - 16 9 - - S 1006,9 40 0,0
08.08.2018 22:00:00 11,7 8,9 - - 22 12 - - SSW 1006,8 30 0,0
08.08.2018 21:00:00 12,2 9,3 - - 24 13 - - SSW 1006,4 35 0,2
08.08.2018 20:00:00 10,8 7,4 - - 24 13 - - SW 1006,0 8 4,8
08.08.2018 19:00:00 13,2 9,0 - - 28 15 46 25 SSW 1005,5 30 0,0
08.08.2018 18:00:00 14,4 9,0 - - 28 15 - - SSW 1005,1 35 0,0
08.08.2018 17:00:00 14,7 8,9 - - 29 16 - - SSW 1004,7 30 0,0
08.08.2018 16:00:00 16,1 9,1 - - 28 15 - - SW 1004,2 35 0,0

tt = Température de l'air
td = dewpoint
tt -20cm = Température de l'air -20cm
tt -100cm = Température de l'air -100cm
ff = Vitesse du vent
fx = gusts
dd = Direction du vent
ppp = reduced air pressure
vv = visibility
rr = Quantités de précipitations

stations d'obs. à proximité